Regional Weather Roundup
Issued by NWS Wakefield, VA

Home | Current Version | Previous Version | Text Only | Print | Product List | Glossary Off
Versions: 1 2 3 4 5 6 7 8 9 10 11 12 13 14 15 16 17 18 19 20 21 22 23 24 25 26 27 28 29 30 31 32 33 34 35 36 37 38 39 40 41 42 43 44 45 46 47 48 49 50

232
ASUS41 KAKQ 101115
RWRAKQ

REGIONAL WEATHER ROUNDUP
NATIONAL WEATHER SERVICE WAKEFIELD VA
600 AM EST SAT DEC 10 2016

Note: "fair" indicates few or no clouds below 12,000 feet with no
significant weather and/or obstructions to visibility. * = Denotes
station may not report precipitation (e.g., rain,snow,etc.),
thunder or fog.

VAZ042-051-052>054-056-101200-
NORTHERN VIRGINIA

CITY           SKY/WX    TMP DP  RH WIND       PRES   REMARKS
WASH NATIONAL  PTCLDY    30  15  53 SW5       30.49R
DULLES         PTCLDY    25  13  60 NW5       30.48R
FORT BELVOIR   NOT AVBL
QUANTICO       CLEAR     26  17  68 NW3       30.51R
FREDERICKSBRG* CLEAR     26  17  71 CALM      30.50R
STAFFORD*      PTCLDY    24  15  69 CALM      30.53R
WARRENTON      CLEAR     18  12  77 CALM      30.48R
CULPEPER*      PTCLDY    21  15  78 CALM      30.50R
MANASSAS*      NOT AVBL
LEESBURG*      PTCLDY    30  19  64 W6        30.48R
WINCHESTER     CLOUDY    27  12  54 W8        30.46R
FRONT ROYAL*   FAIR      28  14  54 CALM      30.46R
LURAY*         FAIR      25  18  74 S5        30.47R
$$

VAZ048-049-060>072-079>083-101200-
CENTRAL AND SOUTH CENTRAL VIRGINIA

CITY           SKY/WX    TMP DP  RH WIND       PRES   REMARKS
RICHMOND       CLEAR     22  14  71 CALM      30.50R
CHESTERFIELD*  FAIR      19   0  42 CALM      30.51R
PETERSBURG*    CLEAR     15  13  91 CALM      30.52R
HANOVER        PTCLDY    21  15  78 CALM      30.51R
TAPPAHANNOCK*  PTCLDY    25  12  58 W3        30.50R
QUINTON*       FAIR      21  17  83 CALM      30.50R
CHARLOTTSVILLE PTCLDY    25  12  58 CALM      30.47R
GORDONSVILLE*  FAIR      21  14  73 CALM      30.48R
ORANGE*          N/A     25  16  68 CALM      30.49S
LOUISA*        CLEAR     19  18  93 CALM      30.47R
BUMPASS*       FAIR      20  15  79 CALM      30.49R
FARMVILLE*     CLEAR     19  17  91 SW3       30.49R
CREWE*         FAIR      18  17  99 CALM      30.50R
FORT PICKETT*  FAIR      19  13  75 W14G20    30.50R WCI   6
CHASE CITY*    FAIR      19  15  82 CALM      30.50S
CLARKSVILLE*   FAIR      23  14  68 CALM      30.51R
SOUTH HILL*    CLEAR     18  16  92 CALM      30.56R
LAWRENCEVILLE* FAIR      20  15  82 CALM      30.51R
EMPORIA*       CLEAR     18  14  86 CALM      30.53S
$$

VAZ088>098-101200-
SOUTHEAST VIRGINIA

CITY           SKY/WX    TMP DP  RH WIND       PRES   REMARKS
NORFOLK        CLEAR     31  17  56 VRB5      30.50R
VIRGINIA BEACH PTCLDY    26  16  65 W6        30.49R
NORFOLK NAVAL  CLEAR     30  16  56 NW12      30.52R WCI  20
WEST POINT*    CLEAR     24  18  76 W3        30.52S
SALUDA*        FAIR      29  18  63 NW6       30.49R
NEWPORT NEWS   CLEAR     27  15  61 NW5       30.51R
LANGLEY AFB    CLEAR     28  15  58 W6        30.50R
FORT EUSTIS    CLEAR     30  16  56 NW8       30.48R
WILLIAMSBURG*  CLEAR     27  18  69 CALM      30.51R
HR EXEC AP*    FAIR      19  14  79 CALM      30.50R
FRANKLIN*      CLEAR     20  16  84 CALM      30.53R
US460-WAKEFLD  CLEAR     19  16  88 CALM      30.52R
$$

VAZ020-022-025-037-045-101200-
WEST CENTRAL AND SOUTHWEST VIRGINIA

CITY           SKY/WX    TMP DP  RH WIND       PRES   REMARKS
STAUNTON*      CLEAR     17  11  79 CALM      30.49R
WAYNESBORO*    FAIR      18  10  69 W3        30.45R
HOT SPRINGS VA PTCLDY    10   7  85 W13       30.26R WCI  -5
LYNCHBURG      CLEAR     16  11  80 CALM      30.49R
DANVILLE       PTCLDY    19  15  84 W5        30.51S
SOUTH BOSTON*  FAIR      18  14  86 CALM      30.53R
MARTINSVILLE   CLEAR     14  11  87 CALM      30.52R
ROANOKE        CLEAR     20  12  71 W5        30.50R
BLACKSBURG     CLEAR     18  12  77 W5        30.46R
DUBLIN*        CLEAR     18  13  82 W6        30.44S
MARION*        CLEAR     15  12  88 W9        30.43S
HILLSVILLE*    CLEAR     16  12  85 CALM      30.37R
RICHLANDS*     FAIR      15  12  87 CALM      30.41R
WISE*          CLEAR     14  12  92 CALM      30.42S
ABINGDON*      CLEAR     15  12  86 CALM      30.46R
$$

MDZ021>025-VAZ099-100-101200-
SOUTHERN MARYLAND AND THE DELMARVA PENINSULA

CITY           SKY/WX    TMP DP  RH WIND       PRES   REMARKS
PATUXENT RIVER CLEAR     28  17  63 W12       30.47R WCI  18
BAY BRIDGE APT CLEAR     30  19  64 MISG      30.46R
LEONARDTOWN    CLEAR     28  18  64 W6        30.49R
DOVER          CLEAR     27  19  74 W5        30.44R
GEORGETOWN     PTCLDY    28  19  69 W3        30.45R
EASTON         CLEAR     30  19  62 NW3       30.50R
CAMBRIDGE      PTCLDY    30  19  64 W5        30.46R
SALISBURY      CLEAR     26  18  71 W6        30.46R
OCEAN CITY     CLEAR     27  19  72 W5        30.47R
WALLOPS ISLAND CLEAR     27  20  75 W6        30.48R
ACCOMACK*      CLEAR     32  20  61 NW5       30.48R
$$

NCZ012>017-030>032-101200-
NORTH CENTRAL AND EASTERN NORTH CAROLINA

CITY           SKY/WX    TMP DP  RH WIND       PRES   REMARKS
ROANOKE RAPIDS FAIR      21  19  93 CALM      30.52R
RALEIGH        CLEAR     20  15  81 CALM      30.52R
ELIZABETH CITY CLEAR     24  18  77 W6        30.51R
AHOSKIE*         N/A     22  16  79 CALM      30.52S
EDENTON*       NOT AVBL
CURRITUCK*     CLEAR     28  20  74 CALM      30.51R
KILL DEVIL HLS CLEAR     32  26  78 NW3       30.47R
MANTEO         CLEAR     33  23  67 N8        30.49S
CAPE HATTERAS  CLEAR     37  21  52 VRB5      30.48R
TARBORO*       NOT AVBL
GOLDSBORO      CLEAR     26  17  69 CALM      30.51R
WASHINGTON     CLEAR     24  18  75 CALM      30.52S
GREENVILLE     CLEAR     25  19  80 CALM      30.52R
NEW BERN       CLEAR     27  18  69 N7        30.53R
WILMINGTON     CLEAR     26  19  74 N6        30.52R
$$

VAZ048-101200-
ELSEWHERE

CITY           SKY/WX    TMP DP  RH WIND       PRES   REMARKS
HARRISBURG PA  MOCLDY    29  19  66 W12       30.41R WCI  19
BALTIMORE      PTCLDY    26  17  68 SW3       30.46R
ANNAPOLIS      CLEAR     32  19  58 NW8       30.47R
ANDREWS AFB    CLEAR     28  15  57 W9        30.45R
PHILADELPHIA   PTCLDY    27  17  66 W7        30.43R
HENDERSON NC   CLEAR     21  11  64 CALM      30.50R
GREENSBORO     CLEAR     21  13  71 CALM      30.48S
ROCKY MOUNT    CLEAR     21  18  88 CALM      30.52R
$$

VAZ100-101200-
MARINE

STATION/POSITION TIME  TEMP    WIND        PRES    WAVE   SWELL
                       AIR SEA DIR/SP/G            HT/PER HT/PER
                 (UTC) (F)     (DEG/KT/KT) (MB)    (FT/S) (FT/S)
BRANDYWINE LGT   1042   32     310/ 19/ 26   N/A
CAPE MAY NJ      1042   33 41  310/ 10/ 19 1030.3R
LEWES DE         1042   30 43  290/ 11/ 13 1031.1R
OCEAN-CITY-INLET 1042   29 48  310/  7/  8 1031.7R
WACHAPREAGUE VA  1042   30 42  310/  1/  3 1031.9R
THOMAS POINT MD  1100   31 45  300/ 17/ 20   N/A
GOOSES REEF MD   1050   33     290/ 17/ 21 1032.5R
COVE POINT MD    1042   30     310/  8/ 14 1032.5R
SOLOMONS ISLAND  1042   30 48  270/  7/ 10   N/A
BISHOPS HEAD MD  1042   32 35  310/ 10/ 13 1032.1R
PINEY POINT MD   1048          330/ 17/ 21   N/A
POTOMAC MD       1050   34     300/ 12/ 17 1031.4R
CAMBRIDGE MD     1042   33 43  300/ 13/ 16 1031.0R
LEWISETTA VA     1042   29 43  290/  7/  9 1032.1R
RAPPAHANNOCK LGT 1048          320/ 19/ 21 1032.6R
STINGRAY PT      1050   33     330/ 14/ 17 1032.9R
YORK RVR RNG VA  1042   31     320/ 12/ 13 1032.2R
YORKTOWN VA      1042   31 48  280/  8/ 12 1032.4R
JAMESTOWN VA     1050   31     310/ 10/ 14   N/A
DOMINION TERM VA 1042   34     340/  3/ 12 1032.7R
KIPTOPEKE VA     1048      47  330/ 13/ 18   N/A
CHES BAY BRIDGE  1036   34 49  340/ 13/ 18 1032.4R
CAPE HENRY VA    1036   35     350/ 15/ 19   N/A
WILLOUBY STN VA  1036   32     320/ 13/ 16 1033.4R
S CRANEY ISL VA  1036   32     330/  9/ 15 1032.4R
CAPE HENRY BUOY  1042      53                N/A     4/ 5
CAPE CHARLES BUO 1056      52                N/A     3/ 4
OFFSHORE WE BUOY 1051      54                N/A     4/ 4
64NM E OF VA BCH 1050   40 58  320/ 16/ 21 1030.8R   5/ 6   2/11
DUCK PIER NC     1036   33 52  320/ 12/ 15 1031.7R
44100 DUCK FRF   1035      55                N/A     5/ 6
OREGON INLET NC  1036   35 49  310/  9/ 12 1032.0R
HATTERAS NC      1036   38 52  350/ 16/ 20 1031.5R
DIAMOND SHLS NC  1050   42 78  350/ 14/ 19 1031.7R   5/ 9   3/ 9
CAPE LOOKOUT NC  1000   34     350/ 13/ 15 1032.0R
$$




USA.gov is the U.S. government's official web portal to all federal, state and local government web resources and services.